Погода Балкашино

Погода Балкашино : погода сейчас, прогноз погоды и архив. Всё, что Вы хотите узнать о погоде Балкашино!

Поиск расширенной информации на нашем сайте:

Другие новости

Новости СМИ2

Главная страница сайта

Новости сайта

02.10.2013

Напоминаем, что на нашем новом сайте вы можете получить высокодетализированные прогнозы погоды по пунктам России, СНГ и мира (включающие важные для авиации метеовеличины, такие как направление и скорость ветра, видимость, явления погоды, количество и форма облачности, нижняя и верхняя граница облачности), а также ознакомиться с разнообразными материалами по авиационной метеорологии и подборкой полезных ссылок на эту тему.

Сайт Метеоцентр.Азия посвящён разработке технологий оптимизации авиаметеорологического обслуживания, включая проектирование и перспективное создание нескольких автоматизированных авиаметеорологических систем:
- система выпуска высокодетальных прогностических карт явлений погоды для нижнего воздушного пространства по России и ближнему зарубежью;
- система верификации прогнозов TAF (выпускаемых синоптиками официальных АМСГ РФ и ближнего зарубежья) и AUTOTAF (выпускаемых сайтом Метеоцентр.Азия) - выявление ошибок, онлайн-сопоставление с фактической погодой METAR, автоматическое внесение коррективов в прогнозы при резком отклонении фактической погоды от прогноза, подсчёт оправдываемости прогнозов по элементам и в целом;
- система обработки, анализа и отображения авиаметеорологической информации для применения провайдерами метеорологической информации.

Рекомендуем: Кафельная плитка цена интернет магазин плитка.

Погода Балкашино - сегодня

Время (UTC), дата Ветер
(°,м/с) 
Видим.   Явления Облачность Т
(°С)
Тd
(°С)
f(%) Тe
(°С)
Pmin
(гПа)
dP
(гПа)
Po
(мм)
O2
(г/м3)
Тmin Tmax R s Состояние
почвы
18 22.03.17 тихо ()   н/о    ясно 
-4 -13.3 48 -4  1036.5  -0.3  739  303    +2.6       
21 22.03.17 090 (В) н/о    ясно 
-4.1 -13.4 48 -5  1035.7  -0.7  739  303           
00 23.03.17 090 (В) н/о    ясно 
-6.1 -14.6 51 -8  1035.1  -1  738  305           
06 23.03.17 110 (В) 20000 м    10/0 средняя, верхняя 
[Ac lent|Cs]
+1.5 -11.5 37 -1  1031.8  -1  737  296  -6.4         
09 23.03.17 140 (ЮВ) 20000 м    8/0 верхняя 
[Ci sp]
+3 -8.7 42 +1  1029.8  -1.7  735  294           
12 23.03.17 160 (Ю) 20000 м    4/0 верхняя 
[Ci sp]
+1.9 -7.7 49 1028.5  -1.4  734  295           
15 23.03.17 130 (ЮВ) н/о    4/0 верхняя 
[Ci sp]
-1.3 -7.6 62 -4  1028.3  -0.8  734  298    +3.2       
18 23.03.17 130 (ЮВ) н/о    3/0 верхняя 
[Ci sp]
-2.8 -7.8 68 -6  1026.9  -1.6  733  299    +3.2       
21 23.03.17 130 (ЮВ) н/о    ясно 
-4.3 -8.9 70 -6  1024.3  -2.7  731  300           
00 24.03.17 140 (ЮВ) н/о    ясно 
-6.4 -10 76 -8  1022.1  -2.5  729  302           
06 24.03.17 180 (Ю) 20000 м    10/0 верхняя 
[Cc]
-0.1 -7.1 59 -1  1017  -2.1  726  293  -9.1         
09 24.03.17 230 (ЮЗ) 20000 м    10/0 верхняя 
[Cs]
-0.9 -4.7 75 -2  1015.1  -1.9  725  293           
12 24.03.17 230 (ЮЗ) 20000 м    10/0 верхняя 
[Cs]
-1.9 -4.3 84 -3  1014.3  -1  724  294           
15 24.03.17 270 (З) н/о    10/10 600 м 
[Sc]
-3.1 -4.7 89 -4  1015.1  0.6  724  296    -0.1       
18 24.03.17 270 (З) н/о    10/10 600 м 
[Sc]
-4 -5.7 88 -5  1015.8  0.5  725  297    -0.1       
21 24.03.17 270 (З) н/о  дымка  10/10 600 м 
[Sc]
-3.8 -4.9 92 -5  1016.6  0.8  725  297           
00 25.03.17 тихо ()   н/о    3/3 600 м 
[Sc]
-5.4 -7.9 83 -5  1018.4  1.4  726  299           
06 25.03.17 270 (З) 20000 м    10/3 300 м средняя 
[St|Ac und]
-2 -4.1 85 -3  1021.7  1.7  729  296  -5.9         
09 25.03.17 320 (СЗ) 20000 м    8/8 600 м 
[Cu med, cong]
+0.3 -5.4 66 -2  1022.2  0.8  730  294           
12 25.03.17 270 (З) 20000 м    8/8 600 м 
[Cu med, cong]
-0.3 -3.7 78 -1  1023.1  0.8  730  295           
15 25.03.17 тихо ()   н/о    ясно 
-3.9 -4.9 93 -4  1024.2  0.4  731  299    +1.2       
21 25.03.17 230 (ЮЗ) н/о  дымка  10/10 300 м 
[St]
-6.7 -7.9 91 -10  1024.7  -0.3  731  303           
09 26.03.17 040 (СВ) 20000 м    10/10 600 м 
[St]
-2.8 -3.5 95 -4  1016.4  -3.3  725  296           
18 26.03.17 270 (З) н/о  {снег}  10/10 600 м 
[Sc]
-2.6 -3.9 91 -5  1015.9  725  295    -2.4  0.2     
21 26.03.17 230 (ЮЗ) н/о  дымка  10/10 300 м 
[St]
-2.4 -3 96 -5  1015.3  -0.5  724  295           
Время (UTC), дата Ветер
(°,м/с) 
Видим.   Явления Облачность Т
(°С)
Тd
(°С)
f(%) Тe
(°С)
Pmin
(гПа)
dP
(гПа)
Po
(мм)
O2
(г/м3)
Тmin Tmax R s Состояние
почвы

Для получения пояснительной информации подведите курсор к названию столбца.

ПОГОДА Балкашино - архив

Всё, что Вы хотите узнать о погоде Балкашино - удобно и подробно!

Выберите нужную дату (начиная с 1 января 2015* года) и нажмите кнопку "Найти".
Будут отображены архивные сводки погоды по пункту Балкашино, начиная с указанной даты.


Отображать данные в формате CSV (для использования в таблицах Excel)


Внимание! Наш архив погоды предназначен исключительно для личного некоммерческого использования в познавательных целях. Если Вам необходимы официальные справки о состоянии погоды (для производственных, юридических, коммерческих и т.п. целей), обращайтесь в органы Росгидромета.

*Примечание: данная дата относится к архиву по метеостанциям СССР (Россия, СНГ, Балтия).
Архив по метеостанциям Зарубежной Европы и Азии (кроме Китая) хранится 10 дней, по другим регионам земного шара (Китай, Африка, Америка, Австралия, Океания) - 1 день.

Балкашино - район местоположения метеостанции


Название, широта, долгота, высота метеостанции:
Балкашино 52.5°ш. 68.8°д. 398 м над ур. моря [Казахстан]

Дополнительная информация

В oтличие oт бoльшинства пoгoдных сайтoв мы публикуем пoдрoбную метеoинфoрмацию в детальнoм прoфессиoнальнoм фoрмате.

Характеристики температуры и влажнoсти вoздуха измеряются на высoте 2 м в тени вдали oт зданий и деревьев.
Скoрoсть ветра измеряется на высoте 10 м (на урoвне рoста челoвека скoрoсть ветра ниже в 1.5-2 раза). Если метеoстанция нахoдится в гoрoде или в лесу, тo скoрoсть ветра занижена на 2-4 м/с пo сравнению с oткрытым местoм. Скoрoсть ветра над акватoриями крупных рек и oзёр, а также на вершинах хoлмoв на 2-5 м/с выше, чем в oбычных услoвиях.
Атмoсфернoе давление в разных тoчках местнoсти мoжет значительнo oтличаться oт давления на метеoстанции, в зависимoсти oт услoвий рельефа (при пoдъёме на 10 м давление пoнижается примернo на 1 мм рт.ст.).